CST,Max TemperatureF,Mean TemperatureF,Min TemperatureF,Max Dew PointF,MeanDew PointF,Min DewpointF,Max Humidity, Mean Humidity, Min Humidity, Max Sea Level PressureIn, Mean Sea Level PressureIn, Min Sea Level PressureIn, Max VisibilityMiles, Mean VisibilityMiles, Min VisibilityMiles, Max Wind SpeedMPH, Mean Wind SpeedMPH, Max Gust SpeedMPH,PrecipitationIn, CloudCover, Events, WindDirDegrees
2013-11-1,59,45,32,39,32,27,87,64,31,30.13,29.96,29.71,10,10,10,26,12,36,0.00,2,,314
2013-11-2,59,42,26,31,27,22,89,60,25,30.24,30.12,29.92,10,10,10,20,9,25,0.00,0,,237
2013-11-3,68,54,37,39,33,29,82,56,29,29.91,29.67,29.53,10,10,10,26,16,32,0.00,0,,159
2013-11-4,51,40,30,37,32,27,87,66,41,30.11,29.96,29.65,10,10,1,24,12,34,0.00,1,,10
2013-11-5,36,31,26,35,32,24,95,91,83,30.14,30.04,29.93,10,6,0,16,7,23,0.55,7,Rain-Snow,16
2013-11-6,47,38,28,32,29,26,94,80,47,30.31,30.21,30.14,10,10,10,13,6,,0.00,3,,290
2013-11-7,52,40,27,35,31,25,93,75,40,30.43,30.33,30.13,10,10,10,14,6,,0.00,0,,255
2013-11-8,68,50,33,43,35,31,92,68,30,30.12,29.87,29.73,10,10,10,18,9,24,0.00,0,,219
2013-11-9,60,46,31,37,31,27,93,68,28,30.34,30.17,29.99,10,10,5,10,4,,0.00,0,,325
2013-11-10,56,44,31,46,36,28,93,81,63,30.35,30.25,30.13,10,10,5,18,5,23,0.00,2,,165
2013-11-11,43,33,23,41,25,13,99,79,58,30.75,30.41,30.10,10,8,0,24,10,29,0.00,5,Fog,12
2013-11-12,41,26,12,26,20,10,89,74,51,30.78,30.65,30.43,10,10,10,15,6,18,0.00,0,,192
2013-11-13,65,46,26,37,31,24,92,68,32,30.43,30.15,29.91,10,10,10,17,7,24,0.01,0,,180
2013-11-14,59,44,28,41,34,26,95,72,36,30.00,29.92,29.89,10,10,7,17,5,25,0.00,1,,358
2013-11-15,58,43,28,39,34,26,94,72,42,29.89,29.68,29.46,10,10,7,20,5,29,0.00,0,,158
2013-11-16,63,48,32,38,32,23,96,63,22,29.45,29.38,29.32,10,10,10,17,8,25,0.00,1,Rain,269
2013-11-17,51,38,24,42,30,20,89,66,41,30.11,29.74,29.43,10,10,4,40,13,48,0.04,2,Rain,294
2013-11-18,60,40,20,27,20,17,88,54,19,30.21,30.12,30.07,10,10,10,21,7,26,0.00,0,,230
2013-11-19,59,46,32,36,28,21,74,52,35,30.07,29.87,29.73,10,10,10,26,12,34,0.00,0,,174
2013-11-20,62,49,34,37,33,28,83,61,30,30.04,29.77,29.71,10,10,7,20,7,25,0.00,1,,337
2013-11-21,33,24,15,27,15,9,84,74,63,30.63,30.34,30.06,10,8,1,29,21,37,0.00,8,Snow,355
2013-11-22,33,22,10,19,12,6,84,70,37,30.68,30.61,30.56,10,10,10,13,8,,0.00,0,,294
2013-11-23,26,20,15,15,12,7,88,73,50,30.78,30.69,30.58,10,10,10,10,4,,0.00,0,,88
2013-11-24,36,26,16,31,22,11,90,81,69,30.57,30.30,30.06,10,10,5,24,12,33,0.00,3,Snow,183
2013-11-25,47,35,23,30,24,19,95,75,34,30.26,30.15,30.06,10,9,4,20,10,24,0.00,4,,299
2013-11-26,34,22,11,23,15,7,89,71,38,30.42,30.35,30.26,10,10,10,18,10,29,0.00,2,,329
2013-11-27,54,32,9,27,18,6,87,68,35,30.39,30.14,29.96,10,10,10,17,5,23,0.00,0,,191
2013-11-28,31,24,18,25,21,16,91,84,70,30.37,30.29,30.11,10,10,7,10,7,,0.00,2,,31
2013-11-29,45,32,18,30,23,16,93,80,52,30.36,30.19,30.08,10,9,4,12,7,,0.00,0,,182
2013-11-30,60,40,21,34,26,20,93,72,31,30.13,30.09,30.05,10,10,5,13,6,,0.00,0,,294